Charlottetown, Prince Edward Island

5:39 AM ADT on March 27, 2017 (GMT -0300)
Charlottetown

Weather History for CYYG - June, 2013

Change the Weather History Date:

Sunday, June 30, 2013

  Actual Average Record
Temperature  
Mean Temperature 70 °F -  
Max Temperature 76 °F 74 °F 82 °F (1999)
Min Temperature 64 °F 56 °F 51 °F (2005)
Cooling Degree Days 5    
Growing Degree Days 20 (Base 50)    
Moisture  
Dew Point 65 °F    
Average Humidity 90    
Maximum Humidity 94    
Minimum Humidity 72    
Precipitation  
Precipitation 0.12 in 0.11 in - ()
Sea Level Pressure  
Sea Level Pressure 29.83 in    
Wind  
Wind Speed 13 mph ()    
Max Wind Speed 20 mph    
Max Gust Speed 31 mph    
Visibility 14.6 miles    
Events Rain    
Averages and records for this station are not official NWS values.
T = Trace of Precipitation, MM = Missing Value Source: Averaged Metar Reports

Daily Weather History Graph

Daily Weather History Graph

Search for Another Location

Airport or City:

Trip Planner

Search our weather history database for the weather conditions in past years. The results will help you decide how hot, cold, wet, or windy it might be!

Date:

Astronomy

Jun. 30, 2013 Rise Set
Actual Time 5:24 AM ADT 9:08 PM ADT
Civil Twilight 4:45 AM ADT 9:46 PM ADT
Nautical Twilight 3:53 AM ADT 10:38 PM ADT
Astronomical Twilight 2:40 AM ADT 11:51 PM ADT
Moon 12:38 AM ADT (6/30) 2:03 PM ADT (6/30)
Length of Visible Light 17h 01m
Length of Day
15h 44m
Last Quarter, 46% of the Moon is Illuminated
Jun 30
Last Quarter
Jul 8
New
Jul 16
First Quarter
Jul 22
Full
Jul 29
Last Quarter

Hourly Weather History & Observations

Time (ADT) Temp. Dew Point Humidity Pressure Visibility Wind Dir Wind Speed Gust Speed Precip Events Conditions
12:00 AM 68.0 °F 66.2 °F 94% 29.77 in 15.0 mi South 16.1 mph 24.2 mph N/A   Overcast
1:00 AM 68.0 °F 64.4 °F 88% 29.78 in 15.0 mi South 17.3 mph - N/A   Overcast
1:25 AM 66.2 °F 64.4 °F 94% 29.77 in 15.0 mi South 17.3 mph - N/A Rain Light Rain Showers
2:00 AM 66.2 °F 64.4 °F 94% 29.78 in 15.0 mi South 16.1 mph 21.9 mph N/A Rain Light Rain Showers
2:02 AM 66.2 °F 64.4 °F 94% 29.78 in 10.0 mi South 16.1 mph 21.9 mph N/A Rain Rain Showers
2:13 AM 66.2 °F 64.4 °F 94% 29.78 in 15.0 mi South 13.8 mph - N/A Rain Light Rain Showers
3:00 AM 67 °F 65 °F 92% 29.78 in 15 mi South 13.8 mph - - Rain Light Rain Showers
3:00 AM 66.2 °F 64.4 °F 94% 29.78 in 15.0 mi South 12.7 mph 19.6 mph N/A Rain Light Rain Showers
3:49 AM 66.2 °F 64.4 °F 94% 29.78 in 15.0 mi South 16.1 mph - N/A   Overcast
4:00 AM 66.2 °F 64.4 °F 94% 29.78 in 15.0 mi South 19.6 mph - N/A   Overcast
4:18 AM 66.2 °F 64.4 °F 94% 29.78 in 15.0 mi South 17.3 mph 31.1 mph N/A Rain Light Rain Showers
5:00 AM 64.4 °F 62.6 °F 94% 29.79 in 15.0 mi South 17.3 mph 23.0 mph N/A Rain Light Rain Showers
5:11 AM 64.4 °F 62.6 °F 94% 29.79 in 5.0 mi South 13.8 mph - N/A Rain Rain Showers
5:52 AM 64.4 °F 62.6 °F 94% 29.80 in 15.0 mi South 16.1 mph - N/A   Mostly Cloudy
6:00 AM 64.4 °F 62.6 °F 94% 29.80 in 15.0 mi South 15.0 mph - N/A   Mostly Cloudy
7:00 AM 66.2 °F 64.4 °F 94% 29.81 in 15.0 mi SSW 15.0 mph - N/A   Overcast
7:55 AM 66.2 °F 64.4 °F 94% 29.81 in 15.0 mi South 11.5 mph - N/A   Overcast
8:00 AM 66.2 °F 64.4 °F 94% 29.81 in 15.0 mi South 12.7 mph - N/A   Overcast
8:21 AM 66.2 °F 64.4 °F 94% 29.81 in 15.0 mi South 16.1 mph 21.9 mph N/A   Overcast
9:00 AM 68 °F 65 °F 87% 29.82 in 15 mi South 16.1 mph - -   Partly Cloudy
9:00 AM 68.0 °F 64.4 °F 88% 29.82 in 15.0 mi SSW 16.1 mph 24.2 mph N/A   Mostly Cloudy
10:00 AM 69.8 °F 66.2 °F 88% 29.83 in 15.0 mi SSW 16.1 mph 24.2 mph N/A   Mostly Cloudy
11:00 AM 69.8 °F 66.2 °F 88% 29.83 in 15.0 mi South 19.6 mph - N/A   Overcast
12:00 PM 71.6 °F 66.2 °F 83% 29.84 in 15.0 mi SSW 16.1 mph - N/A   Overcast
1:00 PM 73.4 °F 68.0 °F 83% 29.84 in 15.0 mi SSW 13.8 mph 27.6 mph N/A   Overcast
2:00 PM 75.2 °F 68.0 °F 78% 29.85 in 15.0 mi SW 11.5 mph 21.9 mph N/A   Mostly Cloudy
3:00 PM 74 °F 67 °F 72% 29.86 in 15 mi SW 15.0 mph - -   Mostly Cloudy
3:00 PM 75.2 °F 66.2 °F 73% 29.86 in 15.0 mi SW 15.0 mph 23.0 mph N/A   Mostly Cloudy
4:00 PM 73.4 °F 66.2 °F 78% 29.87 in 15.0 mi WSW 16.1 mph - N/A   Mostly Cloudy
5:00 PM 71.6 °F 66.2 °F 83% 29.87 in 15.0 mi WSW 11.5 mph 20.7 mph N/A   Mostly Cloudy
6:00 PM 71.6 °F 66.2 °F 83% 29.88 in 15.0 mi WSW 8.1 mph - N/A   Mostly Cloudy
7:00 PM 69.8 °F 66.2 °F 88% 29.89 in 15.0 mi SW 6.9 mph - N/A   Mostly Cloudy
8:00 PM 68.0 °F 64.4 °F 88% 29.90 in 15.0 mi SSW 8.1 mph - N/A   Mostly Cloudy
9:00 PM 66 °F 64 °F 93% 29.92 in 15 mi SSW 8.1 mph - -   Scattered Clouds
9:00 PM 66.2 °F 64.4 °F 94% 29.91 in 15.0 mi SW 8.1 mph - N/A   Mostly Cloudy
10:00 PM 66.2 °F 64.4 °F 94% 29.93 in 15.0 mi SSW 6.9 mph - N/A   Overcast
11:00 PM 66.2 °F 64.4 °F 94% 29.95 in 15.0 mi SW 6.9 mph - N/A   Overcast